Flag for Dominican Republic Weather past 2 weeks in Santiago de los Caballeros, Dominican Republic

Now
75 °F

Passing clouds.


Feels Like: 75 °F
Forecast: 71 / 82 °F
Wind: 9 mph from Southeast

Location: Santiago

Current Time: Dec 26, 2014 at 8:14:58 PM

Latest Report: Dec 26, 2014 at 8:00 PM


Visibility: N/A

Pressure: 30.04 "Hg

Humidity: 89%

Dew point: 72 °F

Location of Santiago de los CaballerosLocation

Historic Weather in Santiago de los Caballeros — Graph

°F

Santiago de los Caballeros temperature yesterday

Maximum temperature yesterday: 84 °F (at 2:00 PM)
Minimum temperature yesterday: 66 °F (at 7:00 AM)
Average temperature yesterday: 75 °F

Past Weeks' High & Low Weather Summary

 TemperatureHumidityPressure
High86 °F (Dec 12, 3:00 PM)100% (Dec 12, 2:00 AM)30.15 "Hg (Dec 12, 2:00 AM)
Low61 °F (Dec 19, 7:00 AM)29% (Dec 15, 1:00 AM)29.83 "Hg (Dec 14, 4:00 AM)
Average74 °F86%30.01 "Hg
* Reported Dec 11 7:00 PM — Dec 26 7:00 PM, Santiago de los Caballeros, Weather by CustomWeather, © 2014

Note: Actual official high and low records may vary slightly from our data, if they occured in-between our weather recording intervals... More about our weather records

Advertising

Santiago de los Caballeros weather history for previous 24 hours

 ConditionsComfort  
Time TempWeatherWind HumidityBarometerVisibility
7:00 PM
Dec 26
73 °FPassing clouds.8 mph94%30.04 "HgN/A
6:00 PM75 °FScattered clouds.7 mph83%30.01 "HgN/A
5:00 PM81 °FScattered clouds.9 mph74%30.01 "HgN/A
4:00 PM79 °FScattered clouds.8 mph79%30.01 "HgN/A
3:00 PM73 °FLight rain. Scattered clouds.7 mph100%30.01 "Hg5 mi
2:00 PM81 °FScattered clouds.10 mph74%30.04 "HgN/A
1:00 PM77 °FScattered clouds.7 mph100%30.07 "HgN/A
12:00 PM75 °FLight rain. Broken clouds.10 mph100%30.09 "Hg5 mi
11:00 AM77 °FScattered clouds.5 mph94%30.12 "HgN/A
10:00 AM73 °FPartly sunny.5 mph100%30.12 "HgN/A
9:00 AM72 °FScattered clouds.5 mph88%30.09 "HgN/A
8:00 AM70 °FPartly sunny.3 mph94%30.09 "HgN/A
7:00 AM68 °FPassing clouds.5 mph100%30.07 "HgN/A
6:00 AM68 °FPassing clouds.3 mph100%30.04 "HgN/A
5:00 AM68 °FPassing clouds.No wind100%30.04 "HgN/A
4:00 AM66 °FPassing clouds.No wind94%30.04 "HgN/A
3:00 AM68 °FPassing clouds.No wind100%30.07 "HgN/A
2:00 AM68 °FPassing clouds.No wind100%30.07 "HgN/A
1:00 AM70 °FPassing clouds.No wind100%30.09 "HgN/A
12:00 AM70 °FPassing clouds.No wind94%30.09 "HgN/A
11:00 PM
Dec 25
70 °FPassing clouds.5 mph94%30.09 "HgN/A
10:00 PM73 °FPassing clouds.7 mph94%30.09 "HgN/A
9:00 PM75 °FPassing clouds.6 mph89%30.09 "HgN/A
8:00 PM75 °FPassing clouds.6 mph83%30.07 "HgN/A
Weather by CustomWeather, © 2014

See weather overviewHow to use our weather pages